HEBOWX Weather Reports


Display with metric or nautical units.
time (UTC)temp
F
wind
direction
speed
MPH
gust
MPH
rain 1hr
in
rain 24hr
in
rain mn
in
humidity
%
barometer
mb
20180421131941 36 0 0.0 0.0 0.00 0.23 0.23 99 1026.6
20180421131441 37 0 0.0 0.0 0.00 0.23 0.23 99 1026.2
20180421130941 36 0 0.0 0.0 0.00 0.23 0.23 99 1026.2
20180421130441 36 0 0.0 0.0 0.00 0.23 0.23 99 1026.1
20180421125941 36 0 0.0 0.0 0.00 0.23 0.23 98 1025.7
20180421125441 36 0 0.0 0.0 0.00 0.23 0.23 99 1025.9
20180421124941 36 0 0.0 0.0 0.00 0.23 0.23 99 1026.5
20180421124441 36 0 0.0 0.0 0.00 0.23 0.23 99 1025.5
20180421123941 36 0 0.0 0.0 0.00 0.23 0.23 99 1025.9
20180421123441 37 0 0.0 0.0 0.00 0.23 0.23 99 1025.6
20180421122941 37 0 0.0 0.0 0.00 0.23 0.23 99 1026.3
20180421122441 37 0 0.0 0.0 0.00 0.23 0.23 99 1026.3
20180421121941 37 0 0.0 0.0 0.00 0.23 0.23 99 1026.2
20180421121441 37 0 0.0 0.0 0.00 0.23 0.23 99 1025.3
20180421120941 37 0 0.0 0.0 0.00 0.23 0.23 99 1025.3
20180421120441 37 0 0.0 0.0 0.00 0.23 0.23 99 1025.9
20180421115941 37 0 0.0 0.0 0.00 0.23 0.23 99 1026.1
20180421115441 37 0 0.0 0.0 0.00 0.23 0.23 99 1024.8
20180421114942 38 0 0.0 0.0 0.00 0.23 0.23 99 1025.6
20180421114441 37 0 0.0 0.0 0.00 0.23 0.23 99 1025.6
20180421113941 37 0 0.0 0.0 0.00 0.23 0.23 98 1025.5
20180421113441 37 0 0.0 0.0 0.00 0.23 0.23 99 1025.9
20180421112941 37 0 0.0 0.0 0.00 0.23 0.23 99 1025.7
20180421112441 37 0 0.0 0.0 0.00 0.23 0.23 98 1025.7
20180421111941 38 0 0.0 0.0 0.00 0.23 0.23 99 1025.4
20180421111441 38 0 0.0 0.0 0.00 0.23 0.23 99 1025.4
20180421110941 38 0 0.0 0.0 0.01 0.23 0.23 98 1025.0
20180421110441 38 0 0.0 0.0 0.01 0.23 0.23 98 1025.1
20180421105941 38 0 0.0 0.0 0.04 0.23 0.23 98 1025.0
20180421105441 38 0 0.0 0.0 0.04 0.23 0.23 98 1025.3
20180421104941 38 0 0.0 0.0 0.05 0.23 0.23 98 1024.8
20180421104441 39 0 0.0 0.0 0.05 0.23 0.23 98 1024.8
20180421103941 39 0 0.0 0.0 0.06 0.23 0.23 98 1024.4
20180421103441 39 0 0.0 0.0 0.06 0.23 0.23 98 1025.2
20180421102941 39 0 0.0 0.0 0.07 0.23 0.23 98 1024.7
20180421102441 39 0 0.0 0.0 0.07 0.23 0.23 98 1025.1
20180421101941 39 0 0.0 0.0 0.07 0.23 0.23 98 1024.2
20180421101441 40 0 0.0 0.0 0.07 0.23 0.23 98 1024.5
20180421100941 40 0 0.0 0.0 0.06 0.23 0.23 98 1024.6
20180421100441 40 0 0.0 0.0 0.06 0.22 0.22 98 1024.3
20180421095941 40 0 0.0 0.0 0.05 0.20 0.21 98 1024.4
20180421095441 41 0 0.0 0.0 0.05 0.19 0.19 98 1024.5
20180421094941 40 0 0.0 0.0 0.05 0.18 0.18 98 1024.6
20180421094441 41 0 0.0 0.0 0.05 0.18 0.18 98 1024.1
20180421093941 40 0 0.0 0.0 0.07 0.17 0.17 98 1023.6
20180421093441 41 0 0.0 0.0 0.07 0.17 0.17 98 1024.4
20180421092941 40 0 0.0 0.0 0.08 0.17 0.17 97 1024.3
20180421092441 40 0 0.0 0.0 0.08 0.16 0.16 98 1023.2
20180421091941 41 0 0.0 0.0 0.09 0.16 0.16 97 1024.0
20180421091441 40 0 0.0 0.0 0.09 0.16 0.16 97 1024.0
20180421090941 40 0 0.0 0.0 0.12 0.16 0.16 97 1023.4
20180421090441 40 0 0.0 0.0 0.12 0.16 0.16 97 1023.8
20180421085941 40 0 0.0 0.0 0.11 0.15 0.15 97 1024.3
20180421085441 40 0 0.0 0.0 0.11 0.15 0.15 97 1023.8
20180421084941 40 0 0.0 0.0 0.11 0.14 0.14 97 1023.8
20180421084441 41 0 0.0 0.0 0.11 0.13 0.13 97 1024.0
20180421083941 40 0 0.0 0.0 0.10 0.11 0.11 97 1023.7
20180421083441 40 0 0.0 0.0 0.10 0.10 0.11 97 1023.7
20180421082941 41 0 0.0 0.0 0.08 0.09 0.09 97 1024.0
20180421082441 40 0 0.0 0.0 0.08 0.08 0.08 97 1023.6
20180421081941 40 0 0.0 0.0 0.07 0.08 0.08 97 1023.3
20180421081441 40 0 0.0 0.0 0.07 0.07 0.07 97 1023.4
20180421080942 40 0 0.0 0.0 0.04 0.06 0.06 97 1023.4
20180421080441 40 0 0.0 0.0 0.04 0.04 0.04 97 1022.7
20180421075941 40 0 0.0 0.0 0.03 0.04 0.04 97 1023.4
20180421075441 41 0 0.0 0.0 0.03 0.03 0.03 97 1023.1
20180421074941 40 0 0.0 0.0 0.02 0.03 0.03 97 1023.7
20180421074441 40 0 0.0 0.0 0.02 0.02 0.02 96 1023.3
20180421073941 41 0 0.0 0.0 0.00 0.01 0.01 96 1023.1
20180421073440 40 0 0.0 0.0 0.00 0.01 0.01 96 1023.7
20180421072941 40 0 0.0 0.0 0.00 0.00 0.00 96 1022.9
20180421072440 40 0 0.0 0.0 0.00 0.00 0.00 96 1022.4
20180421071940 41 0 0.0 0.0 0.00 0.00 0.00 96 1023.2
20180421071440 40 0 0.0 0.0 0.00 0.00 0.00 96 1022.6
20180421070941 40 0 0.0 0.0 0.00 0.00 0.00 95 1022.9
20180421070440 41 0 0.0 0.0 0.00 0.00 0.00 96 1023.6
20180421065940 40 0 0.0 0.0 0.00 0.00 0.00 96 1023.7
20180421065440 40 0 0.0 0.0 0.00 0.00 0.00 96 1023.1
20180421064940 40 0 0.0 0.0 0.00 0.00 0.00 96 1023.4
20180421064440 40 0 0.0 0.0 0.00 0.00 0.00 96 1023.3
20180421063940 40 0 0.0 0.0 0.00 0.00 0.00 95 1023.5
20180421063440 40 0 0.0 0.0 0.00 0.00 0.00 95 1023.2
20180421062940 40 0 0.0 0.0 0.00 0.00 0.00 95 1022.8
20180421062440 40 0 0.0 0.0 0.00 0.00 0.00 95 1023.6
20180421061940 40 0 0.0 0.0 0.00 0.00 0.00 95 1023.6
20180421061440 41 0 0.0 0.0 0.00 0.00 0.00 95 1022.9
20180421060943 40 0 0.0 0.0 0.00 0.00 0.00 95 1023.2
20180421060440 40 0 0.0 0.0 0.00 0.00 0.00 95 1022.8
20180421055940 40 0 0.0 0.0 0.00 0.00 0.00 95 1022.9
20180421055440 40 0 0.0 0.0 0.00 0.00 0.00 94 1023.3
20180421054940 40 0 0.0 0.0 0.00 0.00 0.00 94 1023.1
20180421054441 40 0 0.0 0.0 0.00 0.00 0.00 94 1023.5
20180421053941 40 0 0.0 0.0 0.00 0.00 0.00 94 1023.3
20180421053440 40 0 0.0 0.0 0.00 0.00 0.00 94 1023.3
20180421052940 41 0 0.0 0.0 0.00 0.00 0.00 94 1022.7
20180421052440 41 0 0.0 0.0 0.00 0.00 0.00 94 1022.9
20180421051940 40 0 0.0 0.0 0.00 0.00 0.00 94 1023.2
20180421051440 40 0 0.0 0.0 0.00 0.00 0.00 93 1022.8
20180421050940 41 0 0.0 0.0 0.00 0.00 0.00 93 1023.1
20180421050440 41 0 0.0 0.0 0.00 0.00 0.00 93 1023.2
20180421045940 41 0 0.0 0.0 0.00 0.00 0.00 90 1022.5
20180421045440 41 0 0.0 0.0 0.00 0.00 0.00 92 1021.8
20180421044940 41 0 0.0 0.0 0.00 0.00 0.00 92 1022.8
20180421044440 41 0 0.0 0.0 0.00 0.00 0.00 91 1022.7
20180421043941 41 0 0.0 0.0 0.00 0.00 0.00 91 1022.3
20180421043440 41 0 0.0 0.0 0.00 0.00 0.00 90 1022.5
20180421042940 41 0 0.0 0.0 0.00 0.00 0.00 90 1022.5
20180421042440 41 0 0.0 0.0 0.00 0.00 0.00 89 1021.4
20180421041940 41 0 0.0 0.0 0.00 0.00 0.00 89 1022.7
20180421041440 41 0 0.0 0.0 0.00 0.00 0.00 88 1022.8
20180421040940 41 0 0.0 0.0 0.00 0.00 0.00 87 1022.4
20180421040440 41 0 0.0 0.0 0.00 0.00 0.00 86 1022.4
20180421035940 41 0 0.0 0.0 0.00 0.00 0.00 85 1022.6
20180421035440 42 0 0.0 0.0 0.00 0.00 0.00 84 1021.5
20180421034940 41 0 0.0 0.0 0.00 0.00 0.00 82 1021.8
20180421034440 42 0 0.0 0.0 0.00 0.00 0.00 82 1022.4
20180421033940 42 0 0.0 0.0 0.00 0.00 0.00 82 1021.6
20180421033440 42 0 0.0 0.0 0.00 0.00 0.00 83 1021.9
20180421032940 42 0 0.0 0.0 0.00 0.00 0.00 83 1021.8
20180421032440 42 0 0.0 0.0 0.00 0.00 0.00 81 1022.2
20180421031940 42 0 0.0 0.0 0.00 0.00 0.00 80 1022.3
20180421031440 42 0 0.0 0.0 0.00 0.00 0.00 78 1022.2
20180421030940 42 0 0.0 0.0 0.00 0.00 0.00 77 1021.9
20180421030440 42 0 0.0 0.0 0.00 0.00 0.00 75 1022.6
20180421025940 42 0 0.0 0.0 0.00 0.00 0.00 71 1022.5
20180421025440 42 0 0.0 0.0 0.00 0.00 0.00 71 1022.4
20180421024940 42 0 0.0 0.0 0.00 0.00 0.00 71 1022.5
20180421024440 42 0 0.0 0.0 0.00 0.00 0.00 72 1022.5
20180421023940 42 0 0.0 0.0 0.00 0.00 0.00 69 1022.5
20180421023440 42 0 0.0 0.0 0.00 0.00 0.00 65 1022.4
20180421022440 43 0 0.0 0.0 0.00 0.00 0.00 65 1022.3
20180421021940 43 0 0.0 0.0 0.00 0.00 0.00 66 1022.4
20180421021440 43 0 0.0 0.0 0.00 0.00 0.00 65 1021.6
20180421020940 43 0 0.0 0.0 0.00 0.00 0.00 65 1022.3
20180421020440 43 0 0.0 0.0 0.00 0.00 0.00 64 1022.3
20180421015940 44 0 0.0 0.0 0.00 0.00 0.00 62 1022.6
20180421015440 44 0 0.0 0.0 0.00 0.00 0.00 61 1022.3
20180421014940 44 0 0.0 0.0 0.00 0.00 0.00 59 1022.1
20180421014440 44 0 0.0 0.0 0.00 0.00 0.00 59 1022.6
20180421013940 44 0 0.0 0.0 0.00 0.00 0.00 62 1022.4
20180421013440 44 0 0.0 0.0 0.00 0.00 0.00 63 1022.8
20180421012940 45 0 0.0 0.0 0.00 0.00 0.00 65 1022.8
20180421012440 45 0 0.0 0.0 0.00 0.00 0.00 67 1022.2
20180421011940 46 0 0.0 0.0 0.00 0.00 0.00 70 1022.4
20180421011440 47 0 0.0 0.0 0.00 0.00 0.00 67 1022.6
20180421010940 47 0 0.0 0.0 0.00 0.00 0.00 66 1022.5
20180421010440 48 0 0.0 0.0 0.00 0.00 0.00 68 1022.6
20180421005940 49 0 0.0 0.0 0.00 0.00 0.00 65 1022.5
20180421005440 49 0 0.0 0.0 0.00 0.00 0.00 58 1022.6
20180421004940 50 0 0.0 0.0 0.00 0.00 0.00 62 1022.5
20180421004440 50 0 0.0 0.0 0.00 0.00 0.00 61 1023.1
20180421003940 50 0 0.0 0.0 0.00 0.00 0.00 59 1022.3
20180421003440 50 0 0.0 0.0 0.00 0.00 0.00 55 1023.1
20180421002940 50 0 0.0 0.0 0.00 0.00 0.00 54 1023.2
20180421002440 50 0 0.0 0.0 0.00 0.00 0.00 51 1022.3
20180421001940 50 0 0.0 0.0 0.00 0.00 0.00 48 1022.8
20180421001440 50 0 0.0 0.0 0.00 0.00 0.00 47 1023.1
20180421000941 50 0 0.0 0.0 0.00 0.00 0.00 48 1022.4
20180421000440 51 0 0.0 0.0 0.00 0.00 0.00 48 1022.4
20180420235940 50 0 0.0 0.0 0.00 0.00 0.00 48 1023.1
20180420235440 50 0 0.0 0.0 0.00 0.00 0.00 49 1023.2
20180420234940 51 0 0.0 0.0 0.00 0.00 0.00 49 1022.9
20180420234440 50 0 0.0 0.0 0.00 0.00 0.00 49 1023.1
20180420233940 51 0 0.0 0.0 0.00 0.00 0.00 50 1023.3
20180420233440 51 0 0.0 0.0 0.00 0.00 0.00 48 1023.3
20180420232940 51 0 0.0 0.0 0.00 0.00 0.00 49 1023.3
20180420232440 51 0 0.0 0.0 0.00 0.00 0.00 50 1023.1
20180420231939 51 0 0.0 0.0 0.00 0.00 0.00 50 1023.3
20180420231440 51 0 0.0 0.0 0.00 0.00 0.00 50 1023.1
20180420230940 52 0 0.0 0.0 0.00 0.00 0.00 50 1023.1
20180420230440 52 0 0.0 0.0 0.00 0.00 0.00 50 1023.4
20180420225940 52 0 0.0 0.0 0.00 0.00 0.00 49 1022.7
20180420225440 52 0 0.0 0.0 0.00 0.00 0.00 50 1022.8
20180420224941 52 0 0.0 0.0 0.00 0.00 0.00 51 1023.3
20180420224440 52 0 0.0 0.0 0.00 0.00 0.00 50 1023.6
20180420223939 53 0 0.0 0.0 0.00 0.00 0.00 50 1023.3
20180420223440 53 0 0.0 0.0 0.00 0.00 0.00 48 1023.6
20180420222940 53 0 0.0 0.0 0.00 0.00 0.00 50 1023.3
20180420222440 53 0 0.0 0.0 0.00 0.00 0.00 49 1023.6
20180420221940 53 0 0.0 0.0 0.00 0.00 0.00 48 1023.7
20180420221439 53 0 0.0 0.0 0.00 0.00 0.00 48 1023.4
20180420220939 53 0 0.0 0.0 0.00 0.00 0.00 48 1022.9
20180420220439 53 0 0.0 0.0 0.00 0.00 0.00 48 1023.4
20180420215939 53 0 0.0 0.0 0.00 0.00 0.00 47 1023.5
20180420215440 53 0 0.0 0.0 0.00 0.00 0.00 47 1023.4
20180420214940 53 0 0.0 0.0 0.00 0.00 0.00 49 1023.5
20180420214439 53 0 0.0 0.0 0.00 0.00 0.00 51 1023.3
20180420213939 53 0 0.0 0.0 0.00 0.00 0.00 53 1023.6
20180420213439 53 0 0.0 0.0 0.00 0.00 0.00 54 1023.8
20180420212939 53 0 0.0 0.0 0.00 0.00 0.00 53 1023.3
20180420212439 54 0 0.0 0.0 0.00 0.00 0.00 54 1023.7
20180420211939 54 0 0.0 0.0 0.00 0.00 0.00 53 1023.2
20180420211440 54 0 0.0 0.0 0.00 0.00 0.00 53 1023.6
20180420210939 54 0 0.0 0.0 0.00 0.00 0.00 53 1024.0
20180420210439 54 0 0.0 0.0 0.00 0.00 0.00 52 1023.6
20180420205939 53 0 0.0 0.0 0.00 0.00 0.00 52 1024.0
20180420205440 53 0 0.0 0.0 0.00 0.00 0.00 52 1024.0
20180420204939 53 0 0.0 0.0 0.00 0.00 0.00 51 1024.1
20180420204439 53 0 0.0 0.0 0.00 0.00 0.00 53 1024.0
20180420203939 53 0 0.0 0.0 0.00 0.00 0.00 52 1023.7
20180420203439 53 0 0.0 0.0 0.00 0.00 0.00 49 1024.1
20180420202939 53 0 0.0 0.0 0.00 0.00 0.00 51 1024.0
20180420202439 53 0 0.0 0.0 0.00 0.00 0.00 51 1023.8
20180420201939 53 0 0.0 0.0 0.00 0.00 0.00 50 1024.1
20180420201439 53 0 0.0 0.0 0.00 0.00 0.00 49 1024.1
20180420200940 52 0 0.0 0.0 0.00 0.00 0.00 49 1023.7
20180420200439 52 0 0.0 0.0 0.00 0.00 0.00 49 1024.2
20180420195939 52 0 0.0 0.0 0.00 0.00 0.00 49 1023.6
20180420195439 52 0 0.0 0.0 0.00 0.00 0.00 48 1024.2
20180420194939 51 0 0.0 0.0 0.00 0.00 0.00 51 1024.3
20180420194439 50 0 0.0 0.0 0.00 0.00 0.00 51 1024.2
20180420193939 50 0 0.0 0.0 0.00 0.00 0.00 51 1024.2
20180420193441 50 0 0.0 0.0 0.00 0.00 0.00 49 1024.3
20180420192940 50 0 0.0 0.0 0.00 0.00 0.00 51 1023.7
20180420192439 50 0 0.0 0.0 0.00 0.00 0.00 51 1024.2
20180420191939 50 0 0.0 0.0 0.00 0.00 0.00 52 1024.0
20180420191439 50 0 0.0 0.0 0.00 0.00 0.00 52 1024.1
20180420190939 49 0 0.0 0.0 0.00 0.00 0.00 52 1023.6
20180420190440 49 0 0.0 0.0 0.00 0.00 0.00 52 1024.4
20180420185938 49 0 0.0 0.0 0.00 0.00 0.00 52 1023.8
20180420185439 49 0 0.0 0.0 0.00 0.00 0.00 51 1024.4
20180420184939 48 0 0.0 0.0 0.00 0.00 0.00 51 1024.4
20180420184439 48 0 0.0 0.0 0.00 0.00 0.00 51 1024.3
20180420183938 48 0 0.0 0.0 0.00 0.00 0.00 50 1024.4
20180420183438 48 0 0.0 0.0 0.00 0.00 0.00 50 1024.3
20180420182938 48 0 0.0 0.0 0.00 0.00 0.00 49 1024.3
20180420182438 48 0 0.0 0.0 0.00 0.00 0.00 48 1024.3
20180420181939 47 0 0.0 0.0 0.00 0.00 0.00 45 1024.3
20180420181438 47 0 0.0 0.0 0.00 0.00 0.00 49 1024.3
20180420180938 47 0 0.0 0.0 0.00 0.00 0.00 46 1024.1
20180420180438 47 0 0.0 0.0 0.00 0.00 0.00 48 1024.1
20180420175939 47 0 0.0 0.0 0.00 0.00 0.00 48 1024.1
20180420175438 47 0 0.0 0.0 0.00 0.00 0.00 49 1024.3
20180420174938 47 0 0.0 0.0 0.00 0.00 0.00 48 1024.3
20180420174438 47 0 0.0 0.0 0.00 0.00 0.00 47 1024.3
20180420173938 47 0 0.0 0.0 0.00 0.00 0.00 48 1024.4
20180420173438 47 0 0.0 0.0 0.00 0.00 0.00 48 1024.3
20180420172938 47 0 0.0 0.0 0.00 0.00 0.00 48 1024.1
20180420172438 46 0 0.0 0.0 0.00 0.00 0.00 49 1024.3
20180420171938 46 0 0.0 0.0 0.00 0.00 0.00 51 1024.3
20180420171438 47 0 0.0 0.0 0.00 0.00 0.00 50 1024.2
20180420170938 46 0 0.0 0.0 0.00 0.00 0.00 50 1024.3
20180420170438 46 0 0.0 0.0 0.00 0.00 0.00 50 1024.1
20180420165938 46 0 0.0 0.0 0.00 0.00 0.00 51 1024.3
20180420165438 46 0 0.0 0.0 0.00 0.00 0.00 55 1024.0
20180420164938 46 0 0.0 0.0 0.00 0.00 0.00 55 1024.3
20180420164438 46 0 0.0 0.0 0.00 0.00 0.00 55 1023.8
20180420163939 46 0 0.0 0.0 0.00 0.00 0.00 57 1024.2
20180420163438 46 0 0.0 0.0 0.00 0.00 0.00 57 1024.1
20180420162939 46 0 0.0 0.0 0.00 0.00 0.00 57 1023.8
20180420162438 46 0 0.0 0.0 0.00 0.00 0.00 57 1024.1
20180420161938 46 0 0.0 0.0 0.00 0.00 0.00 58 1024.3
20180420161438 46 0 0.0 0.0 0.00 0.00 0.00 56 1024.2
20180420160938 46 0 0.0 0.0 0.00 0.00 0.00 60 1024.1
20180420160438 46 0 0.0 0.0 0.00 0.00 0.00 60 1023.8
20180420155938 46 0 0.0 0.0 0.00 0.00 0.00 62 1023.8
20180420155438 46 0 0.0 0.0 0.00 0.00 0.00 63 1024.1
20180420154938 46 0 0.0 0.0 0.00 0.00 0.00 64 1024.1
20180420154438 45 0 0.0 0.0 0.00 0.00 0.00 63 1023.8
20180420153939 45 0 0.0 0.0 0.00 0.00 0.00 63 1024.2
20180420153438 45 0 0.0 0.0 0.00 0.00 0.00 60 1024.2
20180420152938 44 0 0.0 0.0 0.00 0.00 0.00 61 1024.2
20180420152438 44 0 0.0 0.0 0.00 0.00 0.00 60 1024.2
20180420151938 44 0 0.0 0.0 0.00 0.00 0.00 60 1023.8
20180420151438 44 0 0.0 0.0 0.00 0.00 0.00 60 1023.8
20180420150938 44 0 0.0 0.0 0.00 0.00 0.00 59 1023.6
20180420150438 44 0 0.0 0.0 0.00 0.00 0.00 57 1024.2
20180420145939 44 0 0.0 0.0 0.00 0.00 0.00 56 1024.0
20180420145438 44 0 0.0 0.0 0.00 0.00 0.00 56 1024.2
20180420144938 43 0 0.0 0.0 0.00 0.00 0.00 56 1023.5
20180420144438 43 0 0.0 0.0 0.00 0.00 0.00 57 1024.1
20180420143937 43 0 0.0 0.0 0.00 0.00 0.00 55 1023.8
20180420143437 42 0 0.0 0.0 0.00 0.00 0.00 55 1023.8
20180420142937 42 0 0.0 0.0 0.00 0.00 0.00 54 1024.0
20180420142438 42 0 0.0 0.0 0.00 0.00 0.00 55 1024.2
20180420141938 42 0 0.0 0.0 0.00 0.00 0.00 55 1024.2
20180420141437 41 0 0.0 0.0 0.00 0.00 0.00 55 1023.7
20180420140938 41 0 0.0 0.0 0.00 0.00 0.00 55 1024.1
20180420140437 41 0 0.0 0.0 0.00 0.00 0.00 55 1024.1
20180420135938 41 0 0.0 0.0 0.00 0.00 0.00 54 1024.1
20180420135437 41 0 0.0 0.0 0.00 0.00 0.00 55 1024.1
20180420134938 40 0 0.0 0.0 0.00 0.00 0.00 56 1024.1
20180420134437 40 0 0.0 0.0 0.00 0.00 0.00 56 1024.0
20180420133937 40 0 0.0 0.0 0.00 0.00 0.00 56 1023.7
20180420133437 40 0 0.0 0.0 0.00 0.00 0.00 58 1024.0
20180420132939 40 0 0.0 0.0 0.00 0.00 0.00 58 1024.0
20180420132437 40 0 0.0 0.0 0.00 0.00 0.00 58 1024.0